Date,TemperatureHighF,TemperatureAvgF,TemperatureLowF,DewpointHighF,DewpointAvgF,DewpointLowF,HumidityHigh,HumidityAvg,HumidityLow,PressureMaxIn,PressureMinIn,WindSpeedMaxMPH,WindSpeedAvgMPH,GustSpeedMaxMPH,PrecipitationSumIn
2013-3-1,27,26,24,23,21,19,88,84,79,30.24,30.07,7,4,17,0.00
2013-3-2,30,20,11,20,14,9,92,78,59,30.24,30.17,5,2,14,0.02
2013-3-3,37,21,9,21,12,6,93,73,42,30.17,30.10,4,1,8,0.02
2013-3-4,37,27,15,28,22,10,87,79,63,30.13,29.99,2,1,6,0.00
2013-3-5,35,31,26,32,29,24,95,91,83,30.04,29.81,5,2,12,0.16
2013-3-6,36,31,27,30,27,25,91,86,77,30.31,30.04,4,2,13,0.25
2013-3-7,42,30,19,29,24,17,93,79,58,30.41,30.29,3,1,5,0.23
2013-3-8,45,29,14,31,24,13,97,82,57,30.47,30.28,3,0,6,0.00
2013-3-9,42,37,29,37,32,24,93,83,74,30.29,29.78,3,1,9,0.11
2013-3-10,46,42,39,44,41,36,99,97,88,29.80,29.57,3,1,6,0.68
2013-3-11,41,37,34,40,36,33,99,98,94,29.60,29.52,4,1,7,0.09
2013-3-19,32,24,15,18,14,10,84,69,49,30.08,29.83,8,6,19,0.00
2013-3-20,24,18,12,14,9,4,79,69,61,30.11,30.03,5,3,15,0.00
2013-3-21,33,22,12,18,14,6,89,70,50,30.08,30.02,4,2,12,0.00
2013-3-22,42,27,15,24,18,11,88,71,43,30.08,30.02,3,1,7,0.00
2013-3-23,47,33,24,29,24,21,90,72,44,30.13,30.02,3,1,8,0.00
2013-3-24,38,33,31,31,28,25,95,83,71,30.05,29.70,8,2,14,0.00
2013-3-25,37,32,28,31,27,23,88,81,71,30.09,29.75,7,3,19,0.02
2013-3-26,45,37,32,30,29,26,87,73,49,30.24,30.08,4,1,14,0.00
2013-3-27,42,36,30,30,27,23,85,69,49,30.31,30.24,3,1,8,0.00
2013-3-28,52,38,28,31,26,23,86,65,36,30.34,30.27,4,1,8,0.00
2013-3-29,58,42,32,33,28,25,78,59,34,30.31,30.21,4,1,10,0.04
2013-3-30,58,45,32,44,35,26,90,69,52,30.22,29.81,10,4,17,0.00
2013-3-31,55,44,35,44,37,24,96,78,52,29.88,29.69,16,7,24,0.00